Weather in Achan

Russia / Khabarovsk Krai     49°53′26″N   136°36′43″E
temp.,
°C
wind,
m/s
gust,
m/s
humid.,
%
clouds,
%
prec.,
mm/h
press.,
hPa
HPBL,
m
1 march, mon
mon101:00−16e2292100 0.0 101934
04:00−18ne2294100 0.0 102141
07:00−20e129786 0.0 102320
10:00−18s239291 0.1 1024284
13:00−16s3487100 0.1 1024478
16:00−15ssw358499 0.1 1023468
19:00−19s128734 0.0 102520
22:00−22ese018926 0.0 102620
2 march, tue
tue201:00−24se119430 0.0 102720
04:00−26sse119530 0.0 102826
07:00−28se119530 0.0 102819
10:00−23se238930 0.0 1028244
13:00−19s238137 0.0 1027467
16:00−19ssw238540 0.0 1026413
19:00−24s119738 0.0 102820
22:00−25nne119437 0.0 102920
3 march, wed
wed301:00−26ssw119415 0.0 102919
04:00−26ssw22977 0.0 102920
07:00−28ssw239813 0.0 102950
10:00−23ssw369345 0.0 1027285
13:00−18sw598999 0.0 1024529
16:00−15sw5118199 0.1 1020607
19:00−18wsw239069 0.0 101842
22:00−18sw239079 0.0 101640
4 march, thu
thu401:00−16ssw2497100 0.1 1014121
04:00−16sw2297100 0.2 101261
07:00−19sw229873 0.0 101220
10:00−14sw358771 0.0 1011251
13:00−10sw5108772 0.0 1009454
16:00−6sw5118877 0.0 1007727
19:00−8sw5129296 0.1 1007385
22:00−11sw359588 0.1 1008130
5 march, fri
fri501:00−13s0196100 0.0 100920
04:00−15ene4893100 0.1 1011255
07:00−18ene2590100 0.1 1014185
10:00−17e3591100 0.3 1015417
13:00−15ese3487100 0.4 1017730
16:00−14ssw3480100 0.8 1018732
19:00−18ssw358661 0.0 1020118
22:00−22s358560 0.0 1023112